Location: Malanoce
(44.2500°N, 7.4667°E)
Time: 05:50:32
(UTC+00:00)

Cosmos 1763 Rocket - Pass Details

Date: 17 November 2025
Orbit: 728 x 774 km, 74.0° (Epoch: 09 December)

Event Time Altitude Azimuth Distance (km) Brightness Sun altitude
Rises 17:28:47 0° 336° (NNW) 3,235 6.9 -15.6°
Reaches altitude 10° 17:31:11 10° 333° (NNW) 2,299 6.2 -16.0°
Maximum altitude 17:36:20 64° 253° (WSW) 834 3.9 -16.9°
Drops below altitude 10° 17:41:22 10° 173° (S) 2,252 6.0 -17.8°
Sets 17:43:43 0° 170° (S) 3,164 6.7 -18.2°
